Theta_e
287 287 287 286 287 286 284 284 284 283 283 282 282 281 280 279 279 278 277 277 276 276 276 277 276 277 276 276 276 276 275 275 271 273 275 276 275 275 276 277 278 277 278
287 286 286 286 286 285 285 284 284 283 282 282 281 281 280 279 278 278 276 276 275 275 275 275 275 276 274 274 274 274 274 274 272 270 273 273 274 275 275 275 277 278 278
286 285 286 285 284 285 285 284 283 282 282 281 280 280 279 279 278 277 277 276 275 275 275 274 274 274 273 273 273 272 273 274 273 271 271 274 274 275 275 276 276 277 278
285 285 285 285 284 285 285 284 282 282 281 280 280 280 279 278 277 276 276 275 274 274 274 274 274 273 273 273 273 273 273 272 272 271 271 272 274 276 276 274 274 276 276
285 285 285 285 285 285 284 283 282 282 281 280 279 278 278 277 276 276 275 274 274 273 273 274 273 274 276 275 273 273 273 271 271 271 272 273 273 274 273 275 274 274 275
284 285 286 285 284 283 283 282 281 280 280 279 278 277 276 276 281 281 277 274 274 273 272 273 274 274 275 278 279 279 277 271 271 271 272 272 273 274 275 273 273 272 270
284 285 283 283 283 283 282 281 280 279 279 278 277 276 275 276 282 282 280 275 274 273 273 274 274 275 274 275 277 279 279 280 280 276 273 273 273 274 274 273 274 273 273
283 284 280 281 282 280 279 279 279 278 277 277 277 276 276 276 283 283 280 275 274 274 275 275 274 274 275 275 274 274 275 275 275 276 275 275 276 276 276 276 276 273 272
282 282 279 279 280 278 278 277 277 277 276 277 277 276 276 275 283 283 280 275 275 274 275 275 275 274 276 278 275 273 273 275 278 279 280 280 280 280 280 274 269 267 267
282 281 278 277 276 277 278 276 277 277 276 277 276 276 276 275 283 283 281 275 274 274 274 275 276 275 277 278 275 271 270 273 274 272 274 275 275 274 275 273 270 266 266
280 276 275 275 276 276 274 274 275 275 275 274 274 274 275 275 280 283 283 276 274 273 273 273 274 278 278 278 278 275 273 275 273 272 269 269 270 270 271 271 271 270 267
277 275 276 277 273 274 274 274 274 274 273 272 272 271 273 274 278 282 283 278 277 273 273 274 274 277 277 277 277 276 276 275 265 264 265 266 267 268 270 271 272 272 272
281 277 276 277 276 276 276 274 274 274 273 272 272 271 270 272 275 281 282 280 279 274 274 275 276 276 277 275 274 273 272 267 265 262 264 266 268 269 270 270 271 271 271
280 279 277 275 275 275 275 275 274 273 273 272 271 271 270 270 272 277 278 279 278 275 276 274 273 272 271 270 269 268 268 267 266 265 265 267 268 268 267 268 267 268 267
274 277 278 275 274 273 274 274 274 275 275 273 273 272 270 269 271 276 277 277 276 273 267 266 266 266 265 265 265 265 265 266 265 265 265 265 265 266 266 267 267 266 265
269 271 276 276 274 273 273 272 278 278 278 279 278 275 273 275 276 278 279 279 278 275 265 263 264 264 264 264 264 264 264 264 264 264 264 264 264 264 264 265 266 265 265
265 268 271 275 275 273 272 272 270 276 279 280 280 278 277 277 277 279 279 279 278 274 263 264 264 263 263 263 263 262 262 263 263 263 263 263 263 263 263 263 264 265 265
264 266 268 271 273 273 272 271 271 271 272 272 279 278 278 278 278 279 279 278 274 266 262 262 261 260 261 261 261 260 260 260 260 261 261 260 260 261 261 262 263 264 264
264 265 268 273 274 272 272 271 270 271 271 272 273 277 277 278 279 279 279 272 264 261 260 259 259 259 259 258 258 257 256 256 257 257 257 258 260 260 261 263 263 264 264
264 266 266 268 271 270 269 269 269 269 270 271 272 272 273 275 275 274 266 265 263 260 259 258 257 256 255 255 254 251 252 254 254 255 256 258 259 261 262 262 264 263 262
264 266 268 271 269 269 268 268 269 270 270 270 271 273 276 274 268 263 261 261 260 259 257 257 255 254 253 252 249 248 250 254 254 254 256 258 259 259 261 264 264 263 262
267 268 269 270 267 267 268 269 269 270 270 269 269 273 276 264 262 260 259 258 257 256 256 255 253 253 252 251 250 248 249 251 252 252 257 258 258 260 262 264 263 262 262
269 269 267 267 267 268 268 269 268 269 267 266 268 264 262 261 259 258 257 255 254 253 252 251 251 251 247 248 248 249 249 251 252 252 255 256 258 260 263 262 261 261 261
265 265 265 266 266 266 265 265 264 263 264 267 262 261 260 259 258 257 255 254 253 252 251 250 249 248 248 248 248 248 249 251 251 253 255 257 259 262 262 261 261 260 260
263 263 263 263 263 262 262 262 262 263 262 260 259 258 257 257 256 255 254 254 253 252 251 250 250 248 248 249 249 249 250 254 253 255 258 262 262 261 260 260 260 260 260
261 261 261 261 261 261 261 261 261 260 259 258 258 257 257 256 255 254 254 253 253 253 252 251 249 249 250 250 250 252 255 260 261 264 267 266 260 261 260 258 259 259 260
Wind_Speed
13 13 13 13 14 13 13 14 14 13 14 16 16 15 16 15 13 13 11 11 10 8 5 7 7 6 5 4 4 3 5 5 7 4 3 2 4 7 7 7 9 10 11
13 12 15 14 13 15 15 16 15 16 15 16 16 16 16 16 15 15 14 12 12 11 10 8 8 6 6 6 5 6 5 5 4 11 4 4 4 7 9 11 9 8 11
8 11 13 14 13 16 17 15 15 15 16 15 16 18 17 17 16 15 14 12 11 11 11 11 10 9 8 5 4 4 4 5 5 7 8 5 7 7 9 9 9 9 9
9 14 17 15 19 18 15 14 15 15 16 16 17 17 17 18 17 16 15 13 12 10 10 9 9 9 7 7 6 6 5 5 6 8 9 9 7 8 8 10 11 9 11
10 12 15 14 12 13 13 15 15 16 16 16 16 14 15 15 14 17 16 14 13 10 9 8 7 7 12 10 5 5 5 5 6 7 9 10 7 9 12 11 13 14 12
10 15 14 12 12 14 14 14 15 15 15 16 17 17 17 12 25 29 20 14 13 12 11 10 9 10 11 14 13 14 13 8 9 7 7 10 11 10 10 11 13 14 15
10 12 9 9 12 14 13 14 16 15 14 16 15 16 17 16 30 31 27 13 14 13 13 12 10 8 10 8 12 13 12 14 16 10 10 10 12 11 12 15 15 15 16
13 11 4 6 8 7 11 14 14 14 17 16 15 16 16 14 31 31 29 14 12 13 13 13 12 11 11 10 8 9 8 9 11 9 10 11 11 11 13 14 15 17 16
13 11 6 5 6 7 11 11 11 12 12 13 14 16 17 15 32 31 26 14 13 14 13 13 12 11 15 16 10 7 8 9 11 17 20 22 25 26 22 13 12 11 15
15 13 5 4 5 8 9 10 8 8 10 9 10 12 14 14 30 30 25 11 13 10 11 11 16 10 17 16 7 6 7 7 5 6 10 12 13 15 24 14 10 12 13
12 7 5 3 4 5 4 3 5 7 7 7 10 10 12 14 20 32 32 13 11 11 10 10 7 20 17 13 12 6 5 6 7 4 5 7 9 10 9 10 12 12 13
10 6 6 5 3 3 5 4 7 8 9 9 10 8 7 9 17 29 29 19 18 10 10 8 9 17 14 13 7 6 9 8 2 1 5 6 8 9 10 10 14 15 15
16 11 8 6 5 6 7 8 7 9 8 8 8 10 9 10 9 25 28 25 21 9 7 11 15 15 13 6 5 6 1 2 2 3 6 7 8 9 13 13 15 18 19
19 16 9 8 8 8 7 7 9 10 10 11 11 10 10 11 11 12 13 15 19 12 15 8 8 7 8 6 3 2 1 3 4 6 7 8 9 9 10 10 12 12 14
19 17 13 8 9 9 10 10 10 10 13 11 11 12 14 14 16 21 18 12 13 15 11 5 3 4 5 4 3 3 2 3 5 5 6 8 9 9 10 10 11 13 14
17 15 13 9 7 8 8 8 22 20 20 23 21 15 9 14 28 32 33 30 28 28 7 6 6 6 6 5 3 2 3 4 5 5 6 7 8 9 11 12 12 12 15
17 16 13 11 9 8 9 9 9 15 20 23 22 24 22 19 29 32 32 31 30 25 7 8 7 6 6 5 4 3 3 3 6 5 6 7 8 8 12 13 13 13 15
17 21 14 13 10 9 9 9 8 9 10 10 19 17 23 24 30 31 30 26 16 10 5 8 8 8 6 5 4 3 3 4 6 5 5 7 9 9 11 12 13 15 16
16 13 13 13 9 10 8 9 8 8 9 8 8 17 19 26 31 33 34 11 10 8 7 5 5 6 6 4 3 2 2 5 7 5 4 7 8 9 11 13 14 20 21
17 22 19 14 7 8 8 9 9 9 10 10 11 11 12 17 17 15 9 10 9 7 6 6 5 5 5 4 3 2 2 5 7 4 5 7 9 9 11 13 14 16 17
13 13 16 13 7 8 8 9 9 9 10 10 10 12 24 14 10 10 10 8 8 7 7 5 5 4 4 3 3 3 3 6 6 5 6 7 9 10 10 12 15 16 16
13 11 11 8 7 8 8 8 9 9 10 10 8 13 23 10 9 9 8 7 6 4 4 5 4 3 3 4 4 4 3 6 6 5 7 8 9 10 10 12 14 15 16
6 6 5 5 6 8 8 6 7 7 7 9 11 9 9 9 8 8 8 6 5 4 3 3 3 2 2 4 4 4 5 6 6 5 8 9 10 10 10 12 14 16 16
5 5 5 5 5 5 6 7 8 10 10 9 9 8 9 9 9 9 8 6 5 3 3 3 3 4 3 3 4 5 5 7 6 9 11 10 11 11 10 12 14 18 17
6 6 7 7 7 7 8 8 9 9 9 8 9 9 9 9 8 8 6 5 4 3 3 3 2 4 6 7 6 7 8 13 10 12 9 12 10 11 10 11 14 16 18
7 8 7 7 7 7 7 8 8 8 8 8 8 8 8 8 7 6 5 4 4 3 2 2 4 5 5 5 7 9 11 13 12 15 10 8 7 6 8 12 17 14 17
Wind_Direction
203 199 203 198 198 187 190 191 190 173 176 176 181 183 182 179 176 178 180 173 179 174 169 182 183 170 178 175 169 178 201 199 254 263 249 296 289 290 287 278 282 290 295
213 202 207 204 198 201 202 198 186 183 181 179 176 184 185 182 178 182 182 179 179 179 179 175 186 184 180 179 180 195 215 211 237 281 266 263 268 282 283 287 287 285 280
206 210 213 209 198 208 208 199 190 182 184 181 178 184 186 183 180 183 183 176 180 182 179 180 181 182 186 179 182 191 211 246 252 270 288 294 297 290 295 289 291 286 277
219 212 215 207 207 208 205 194 191 187 184 186 188 187 185 181 179 177 176 173 179 182 178 182 179 186 175 173 190 195 203 228 248 264 278 292 291 303 288 308 307 301 298
232 226 234 233 215 201 197 192 191 191 192 185 178 182 182 184 181 175 174 174 174 174 172 176 180 176 190 191 179 186 205 234 248 273 285 294 309 317 318 315 306 308 304
239 236 235 220 213 206 197 190 190 189 187 182 187 181 180 186 187 181 169 168 169 172 177 178 180 183 200 206 212 217 203 203 232 247 268 292 298 305 313 311 305 308 310
272 256 232 217 210 208 190 184 187 188 182 190 187 180 183 186 186 183 175 166 169 174 178 177 177 181 186 200 221 229 243 255 262 270 273 277 295 301 300 295 292 289 290
317 298 264 222 218 198 192 191 188 182 188 186 187 184 183 187 186 182 174 163 172 174 175 170 175 179 187 187 192 214 225 244 253 258 261 269 272 276 281 287 298 300 293
323 318 285 228 212 194 205 195 191 181 191 191 185 183 186 180 184 181 172 164 177 176 171 171 179 177 188 199 201 204 232 246 260 274 285 289 295 294 297 306 294 298 290
327 312 273 217 223 210 214 198 188 180 189 182 179 182 178 171 185 183 176 167 173 168 166 178 185 180 195 196 195 192 230 247 274 284 275 285 300 294 291 282 285 278 284
306 297 288 256 215 233 191 171 164 168 163 171 168 170 170 173 185 186 186 174 170 174 168 174 186 195 195 203 216 195 212 259 264 302 297 296 293 285 279 273 266 265 275
290 283 260 221 198 177 194 157 154 162 159 164 162 158 165 172 186 190 189 179 184 171 169 170 168 190 191 205 216 267 273 287 44 288 277 274 277 279 278 276 274 269 265
293 278 254 228 186 185 191 177 159 162 176 184 184 176 174 162 188 195 190 173 188 176 161 169 175 184 186 195 202 214 224 143 222 250 263 269 273 280 286 285 279 277 275
301 280 250 218 207 190 190 197 185 183 192 187 192 196 182 171 178 180 179 178 182 166 170 166 166 156 153 158 157 157 184 222 237 254 267 274 282 284 282 284 284 285 285
291 290 271 224 211 209 205 193 212 205 199 199 211 193 178 185 188 178 172 172 158 153 119 106 151 160 165 164 169 174 217 248 251 255 267 281 285 288 290 293 287 289 284
289 284 281 244 221 217 214 214 217 224 217 220 207 194 202 200 181 181 177 173 161 148 120 151 172 179 173 172 167 219 245 245 255 269 271 275 280 294 301 299 288 288 290
278 280 280 263 228 211 216 213 210 221 216 220 208 204 193 187 187 183 178 172 165 149 148 165 172 163 168 176 161 198 250 268 281 271 277 286 285 292 301 294 297 295 296
272 276 274 272 233 208 209 215 202 202 195 197 211 203 197 190 185 181 176 169 167 137 137 165 163 154 165 170 175 200 257 279 278 272 287 286 287 289 296 291 296 298 303
279 274 273 270 234 206 199 198 192 187 190 186 169 195 181 189 182 175 176 166 145 147 149 174 150 147 146 168 186 201 245 277 269 269 273 279 281 284 288 294 293 303 301
276 265 256 262 224 197 189 192 187 184 185 183 178 174 168 174 179 171 130 137 137 141 148 155 161 144 146 189 162 173 239 266 265 256 277 277 277 275 288 293 304 305 302
268 259 247 251 197 197 186 192 185 183 187 179 174 171 175 176 138 136 135 138 140 147 152 153 151 160 168 170 161 179 215 259 265 269 278 281 281 282 292 293 305 303 301
262 243 244 208 175 178 181 180 181 181 170 159 143 177 153 113 124 127 124 118 111 115 123 140 152 175 174 175 182 188 213 258 268 260 276 281 279 282 288 307 310 307 304
268 198 161 149 159 165 170 167 156 141 131 136 149 108 114 118 113 113 115 113 115 135 134 142 161 181 209 206 198 184 215 251 256 256 274 277 281 286 295 313 311 309 307
28 65 99 114 123 111 109 108 97 116 127 138 105 114 113 113 117 116 116 114 128 149 140 149 176 204 220 231 214 209 229 250 253 259 258 270 276 287 302 312 310 308 306
42 58 70 83 93 100 105 107 112 117 108 109 108 105 104 108 111 111 115 130 147 151 159 166 200 232 245 261 268 264 255 268 256 252 260 264 269 282 297 304 306 308 311
47 57 65 73 81 89 98 105 106 109 110 105 105 105 112 114 109 116 130 146 152 152 165 206 225 248 282 279 273 271 272 281 285 286 285 291 278 291 309 305 306 313 318